User: anonymous   Login
Location: Unspecified
(0.0000°N, 0.0000°E)
Time: 21:29:49
(UTC+00:00)
Language:

RASAT - Orbit

View from above orbital plane
View from above orbital plane
View from above satellite
View from above satellite

Ground track
Ground track

The orbit data is extracted from the following two-line orbital elements,

1 37791U 11044D   18344.53746448  .00000025  00000-0  13759-4 0  9994
2 37791  98.1252  74.9145 0021060 214.3216 145.6628 14.64694488391014
Epoch (UTC): 10 December 2018 12:53:56
Eccentricity: 0.0021060
inclination: 98.1252°
perigee height: 663 km
apogee height: 693 km
right ascension of ascending node: 74.9145°
argument of perigee: 214.3216°
revolutions per day: 14.64694488
mean anomaly at epoch: 145.6628°
orbit number at epoch: 39101

The dashed part of the orbit path shows where the satellite is in the earth's shadow,  

DLR